www.pogodaiklimat.ru

Погода и климат >> Архив погоды >> Россия >> Калининградская область >> Черняховск


ПОГОДА в Черняховске

  • Прогноз погоды в Черняховске
  • Монитор погоды в Черняховске

АРХИВ ПОГОДЫ в Черняховске

Время (UTC), дата Ветер
(напр.,м/с)
 
Видим.   Явления Облачность Т
(С)
Тd
(С)
f
(%)
Тe
(С)
Тes
(С)
Комфортность P
(гПа)
Po
(гПа)
Тmin
(С)
Tmax
(С)
R
(мм)
R24
(мм)
S
(см)
18 16.09 СЗ 3-5
{8}
4000 м слаб. ливневой дождь 10/10 300 м
[Cb cap]
+10.3 +8.4 88 +8 +8 1008.7 1004.9 +18.0 2
21 16.09 ЮЗ 2-4
{5}
н/о н/о +9.3 +8.1 92 +8 +8 1007.7 1003.9
00 17.09 ЮЗ 2-4
{6}
н/о н/о +8.7 +7.3 91 +7 +7 1007.3 1003.5
03 17.09 ЮЗ 2-4
{6}
н/о н/о +7.8 +6.5 91 +6 +6 1007.1 1003.3 +7.7 1
06 17.09 ЮЗ 3-5
{6}
20 км 8/6 300 м
[Cu Sc Ac cast]
+9.6 +7.7 88 +7 +7 1006.5 1002.7 +7.3 0.8
09 17.09 ЮЗ 1-4
{8}
н/о н/о +9.5 +8.3 92 +9 +9 1005.9 1002.1
12 17.09 штиль 0-1
{6}
н/о н/о +8.5 +7.6 94 +8 +8 1003.4 999.6
15 17.09 ЮЗ 3-7
{8}
н/о н/о +8.9 +8.0 94 +6 +6 1002.1 998.3 14
18 17.09 ЮЗ 1-3
{7}
10 км 8/5 300 м
[Cu Sc Ci fib]
+6.4 +5.8 96 +5 +5 1000.4 996.6 +11.9 16
21 17.09 ЮЗ 2-4
{4}
н/о н/о +6.6 +6.1 97 +4 +4 999.6 995.8
00 18.09 З 3-5
{7}
н/о н/о +6.3 +5.7 96 +3 +3 999.7 995.9
03 18.09 З 1-2
{5}
н/о н/о +6.7 +6.3 97 +5 +5 1000.8 997.0 +5.9 6
06 18.09 З 2-3
{5}
20 км 9/1 600 м
[Cu med, cong Ac lent Cc]
+7.7 +7.3 97 +5 +6 1004.3 1000.5 +5.9 4
09 18.09 З 4-7
{8}
н/о н/о +11.8 +8.7 81 +10 +10 1007.9 1004.1
12 18.09 З 4-8
{9}
н/о н/о +13.1 +7.8 70 +11 +11 1009.5 1005.7
15 18.09 СЗ 4-10
{12}
н/о н/о +12.9 +7.1 68 +11 +11 1011.3 1007.5 0.2
18 18.09 ЮЗ 1-2
{9}
4000 м дымка 4/4 300 м
[Cu Sc]
+8.1 +7.5 96 +7 +7 1013.2 1009.4 +15.2 5
21 18.09 З 1-3
{4}
н/о н/о +7.2 +6.8 97 +6 +6 1014.0 1010.1
00 19.09 З 1-3
{5}
н/о н/о +7.5 +7.0 97 +6 +6 1015.2 1011.3
03 19.09 З 1-2
{3}
н/о н/о +6.5 +6.2 98 +5 +5 1016.2 1012.3 +6.4 6
06 19.09 З 1-3
{4}
20 км 6/5 300 м
[Cu Sc Ac lent]
+8.3 +8.0 98 +7 +8 1017.5 1013.6 +6.1 0.7
09 19.09 З 2-4
{5}
н/о н/о +11.9 +6.9 71 +11 +11 1018.8 1015.0
12 19.09 СЗ 3-5
{12}
н/о н/о +11.0 +6.0 71 +9 +9 1018.8 1015.0
15 19.09 СЗ 3-7
{7}
н/о н/о +12.0 +6.4 69 +11 +11 1019.0 1015.2 1
18 19.09 З 2-3
{9}
10 км слаб. ливневой дождь 9/9 300 м
[Cb cap]
+8.0 +6.6 91 +6 +6 1020.4 1016.5 +14.6 3
21 19.09 З 2-4
{7}
н/о н/о +6.7 +5.8 94 +4 +4 1021.4 1017.5
00 20.09 З 2-4
{5}
н/о н/о +6.2 +5.6 96 +4 +4 1022.0 1018.1
03 20.09 З 1-2
{5}
н/о н/о +5.3 +4.9 97 +4 +4 1022.0 1018.1 +5.2 2
06 20.09 З 2-3
{5}
20 км 8/3 600 м
[Cu Sc Ci fib]
+6.6 +6.0 96 +4 +5 1022.7 1018.8 +4.7 0.9
09 20.09 С 3-5
{5}
н/о н/о +11.7 +4.8 63 +10 +10 1023.6 1019.8
12 20.09 СЗ 2-5
{7}
н/о н/о +12.6 +3.8 55 +12 +12 1023.4 1019.6
15 20.09 З 1-2
{9}
н/о н/о +12.6 +4.3 57 +13 +13 1022.8 1019.0 0.1
18 20.09 Ю 1-1
{2}
10 км 8/0
[Ac trans Ci fib]
+6.5 +5.3 92 +5 +5 1022.6 1018.7 +13.8 0.0
21 20.09 Ю 1-2
{2}
н/о н/о +7.9 +6.6 91 +7 +7 1021.6 1017.7
00 21.09 Ю 2-4
{4}
н/о н/о +9.1 +7.5 90 +7 +7 1020.1 1016.2
03 21.09 ЮЗ 2-4
{5}
н/о н/о +9.9 +9.1 95 +8 +8 1018.3 1014.5 +6.1 0.1
06 21.09 З 2-3
{4}
4000 м дымка 9/9 300 м
[Cu Sc]
+11.5 +11.0 97 +10 +10 1018.1 1014.3 +6.1 0.3
09 21.09 З 3-7
{7}
н/о н/о +15.0 +11.7 81 +14 +14 1018.5 1014.7
12 21.09 З 3-7
{9}
н/о н/о +15.4 +12.2 81 +15 +15 1018.1 1014.3
15 21.09 З 2-6
{8}
н/о н/о +15.2 +11.3 78 +15 +15 1017.8 1014.0 0.2
18 21.09 З 1-3
{8}
4000 м дымка 9/9 600 м
[Cu Sc]
+13.6 +11.6 88 +14 +14 1018.4 1014.6 +17.5
21 21.09 З 2-3
{6}
н/о н/о +13.0 +11.5 91 +12 +12 1018.7 1014.9
00 22.09 З 2-3
{3}
н/о н/о +12.5 +11.2 92 +12 +12 1018.3 1014.5
03 22.09 З 2-4
{4}
н/о н/о +12.3 +11.2 93 +11 +11 1017.6 1013.8 +12.3
06 22.09 З 3-6
{6}
10 км 10/10 300 м
[Sc]
+12.5 +10.5 88 +11 +11 1017.5 1013.7 +12.3
09 22.09 ЮЗ 2-5
{6}
н/о н/о +13.9 +10.6 80 +13 +13 1017.0 1013.2
12 22.09 СЗ 2-4
{6}
н/о н/о +15.1 +11.1 77 +15 +15 1016.2 1012.4
15 22.09 З 2-3
{6}
н/о н/о +14.7 +12.0 84 +14 +14 1015.7 1011.9
18 22.09 СВ 4-11
{11}
10 км 10/10 300 м
[Cu Sc]
+11.5 +9.8 89 +9 +9 1016.9 1013.1 +15.6
21 22.09 СВ 3-6
{8}
н/о н/о +8.4 +5.4 81 +6 +6 1019.3 1015.4
00 23.09 СВ 2-4
{8}
н/о н/о +6.0 +3.7 85 +4 +4 1020.6 1016.7
03 23.09 В 2-4
{5}
н/о н/о +4.1 +3.1 93 +1 +1 1021.4 1017.5 +4.0
06 23.09 В 1-4
{4}
10 км 9/0
[Ci fib]
+5.3 +3.7 89 +4 +5 1022.8 1018.9 +3.4
09 23.09 В 2-7
{7}
н/о н/о +10.6 +4.7 67 +9 +9 1023.1 1019.3
12 23.09 В 3-8
{8}
н/о н/о +13.2 +1.6 45 +12 +12 1022.1 1018.3
15 23.09 В 2-5
{7}
н/о н/о +12.5 +0.7 44 +12 +12 1021.2 1017.4

 

Местоположение метеостанции Черняховск (Калининградская область, Россия): широта 54.63 долгота 21.80 высота над уровнем моря 31 м.

В архиве по умолчанию представлена погода в Черняховске за последнюю неделю. Архивные данные за месяц целиком и за предыдущие месяцы, начиная с января 2011 года, Вы можете получить, выбрав интересующий диапазон дат из раскрывающегося списка и нажав кнопку "Ввод!".


*Определитесь, кто Вы:
робот инопланетянин человек

Внимание! Время в таблицах - всемирное. Для получения местного времени необходимо прибавить поправку, которая равна 2 ч.

Смотрите также архив погоды в соседних городах и на ближайших метеорологических станциях:

Погода в Железнодорожном (Калининградская область, Россия) (43 км)
Погода в Советске (Калининградская область, Россия) (51 км)
Погода в Виштынце (Калининградская область, Россия) (62 км)
Погода в Кибартае (Литва) (63 км)
Погода в Кентшине (Польша) (68 км)
Погода в Калининграде (Калининградская область, Россия) (76 км)
Погода в Шилуте (Литва) (83 км)
Погода в Рыбачем (Калининградская область, Россия) (85 км)
Погода в Рыбном Порту (Калининградская область, Россия) (87 км)
Погода в Ниде (Литва) (91 км)

Пояснения к столбцам:

Ветер - указаны скорость ветра в м/с - средняя за 10 мин, порывы в срок и между сроками (в фигурных скобках) и направление, откуда дует ветер: С - северный, СВ - северо-восточный, В - восточный, ЮВ - юго-восточный, Ю - южный, ЮЗ - юго-западный, З - западный, СЗ - северо-западный.
Видимость - горизонтальная дальность видимости в метрах или километрах. При видимости от 1 до 10 км при отсутствии осадков обычно наблюдается дымка, при ухудшении видимости до 1 км и менее - туман. В сухую погоду видимость может ухудшаться дымом, пылью или мглою.
Явления - указаны атмосферные явления, наблюдавшиеся в срок или в последний час перед сроком; фигурными скобками обозначены явления, наблюдавшиеся между сроками (за 1-3 часа до срока); квадратными скобками обозначены град или гололедные отложения с указанием их диаметра в мм.
Облачность - указаны через наклонную черту общая и нижняя облачность в баллах и высота нижней границы облаков в метрах; квадратными скобками обозначены формы облаков: Ci - перистые, Cs - перисто-слоистые, Cc - перисто-кучевые, Ac - высококучевые, As - высокослоистые, Sc - слоисто-кучевые, Ns - слоисто-дождевые, Cu - кучевые, Cb - кучево-дождевые. Подробнее классификацию облаков см. в Атласе облаков (PDF).
T - Температура воздуха - температура, измеренная на высоте 2 м над землей.
Td - Температура точки росы - температура, при понижении до которой содержащийся в воздухе водяной пар достигнет насыщения.
f - Относительная влажность воздуха - влажноcть воздуха, измеренная на высоте 2 м над землей.
Te - Эффективная температура - температура, которую ощущает одетый по сезону человек в тени. Характеристика душности погоды. При расчете учитывается влияние влажности воздуха и скорости ветра на теплоощущения человека.
Tes - Эффективная температура на солнце - температура, которую ощущает человек, с поправкой на солнечный нагрев. Характеристика знойности погоды. Зависит от высоты солнца над горизонтом, облачности и скорости ветра. Ночью, в пасмурную погоду, а также при ветре 12 м/с и более поправка равна нулю.
P - Атмосферное давление - приведенное к уровню моря атмосферное давление.
Po - Атмосферное давление - измеренное на уровне метеостанции атмосферное давление.
Tmin - Минимальная температура - минимум температуры воздуха на высоте 2 м над землей.
Tmax - Максимальная температура - максимум температуры воздуха на высоте 2 м над землей.
R - Количество осадков - Количество выпавших осадков за период времени, мм. При наведении курсора мыши на число - период времени, за который выпало указанное количество осадков.
R24 - Количество осадков - Количество выпавших осадков за 24 часа, мм.
S - Снежный покров - Высота снежного покрова, см. При наведении курсора мыши на число - состояние снежного покрова и степень покрытия местности в баллах.